www.pogodaiklimat.ru

Погода и климат >> Архив погоды >> Украина >> Николаев


АРХИВ ПОГОДЫ в Николаеве

Время (UTC), дата Ветер
(напр.,м/с)
 
Видим.   Явления Облачность Т
(С)
Тd
(С)
f
(%)
Тe
(С)
Тes
(С)
Комфортность P
(гПа)
Po
(гПа)
Тmin
(С)
Tmax
(С)
R
(мм)
R24
(мм)
S
(см)
00 9.09 С 3 10 км ясно +16.0 +4.1 45 +16 +16 тепло 1022.9 1016.9
03 9.09 СВ 4 10 км ясно +13.7 +4.8 55 +12 +12 прохладно 1022.9 1016.9
06 9.09 В 7 10 км 3/0
[Ci fib]
+20.7 +7.7 43 +22 +23 комфорт 1022.7 1016.8 +13.3
09 9.09 В 9 10 км 4/0
[Ci fib]
+26.6 +3.6 23 +25 +27 комфорт 1021.8 1016.1
12 9.09 В 8 10 км 3/0
[Ci fib]
+28.4 +1.9 18 +26 +28 жарко 1020.4 1014.7
15 9.09 В 7 10 км 3/0
[Ci fib]
+27.2 +2.4 20 +26 +26 жарко 1019.3 1013.6
18 9.09 В 5 10 км ясно +19.9 +4.2 36 +20 +20 тепло 1020.4 1014.5 +29.2
21 9.09 В 4 10 км ясно +15.1 +4.5 49 +14 +14 по сезону 1020.6 1014.6
00 10.09 СВ 4 10 км 3/0
[Ci fib]
+14.4 +4.4 51 +13 +13 по сезону 1020.1 1014.1
03 10.09 В 5 10 км 3/0
[Ci fib]
+13.4 +6.5 63 +12 +12 по сезону 1020.3 1014.3
06 10.09 В 7 10 км 6/0
[Ci fib]
+20.1 +6.3 41 +21 +21 комфорт 1021.6 1015.7 +12.9
09 10.09 В 10 10 км 6/0
[Ci fib]
+25.7 +1.4 20 +24 +25 комфорт 1021.2 1015.4
12 10.09 В 8 10 км 3/0
[Ci fib]
+28.2 +0.3 16 +26 +27 жарко 1020.2 1014.5
15 10.09 В 9 10 км 5/0
[Ci fib]
+26.6 -0.2 17 +25 +25 комфорт 1020.4 1014.7
18 10.09 ЮВ 4 10 км 4/0
[Ci fib]
+20.4 +1.5 28 +21 +21 комфорт 1022.2 1016.3 +28.8
21 10.09 СВ 4 10 км 3/0
[Ci fib]
+14.5 +2.5 44 +13 +13 по сезону 1022.9 1016.9
00 11.09 СВ 5 10 км 3/0
[Ci fib]
+14.1 +2.5 45 +13 +13 по сезону 1023.1 1017.1
03 11.09 СВ 5 10 км 3/0
[Ci fib]
+13.3 +3.7 52 +12 +12 по сезону 1023.9 1017.9
06 11.09 В 7 10 км 3/0
[Ci fib]
+19.7 +3.9 35 +20 +21 тепло 1025.1 1019.2 +12.9
09 11.09 В 7 10 км 3/0
[Ci fib]
+27.0 +3.7 22 +26 +29 жарко 1024.8 1019.0
12 11.09 В 9 10 км 3/0
[Ci fib]
+28.2 +0.2 16 +26 +27 жарко 1024.2 1018.5
15 11.09 В 7 10 км 3/0
[Ci fib]
+28.2 -1.6 14 +25 +26 комфорт 1023.9 1018.2
18 11.09 В 4 10 км 3/0
[Ci fib]
+19.5 +3.5 35 +20 +20 тепло 1025.0 1019.1 +29.3
21 11.09 СВ 4 10 км ясно +16.3 +2.1 38 +16 +16 тепло 1025.4 1019.4
00 12.09 С 4 10 км 3/0
[Ci fib]
+15.3 +3.9 46 +14 +14 по сезону 1025.5 1019.5
03 12.09 СВ 2 10 км 3/0
[Ci fib]
+13.3 +2.5 48 +13 +13 по сезону 1025.9 1019.9
06 12.09 В 5 10 км 3/0
[Ci fib]
+21.7 +2.8 29 +22 +23 комфорт 1026.2 1020.3 +13.0
09 12.09 В 8 10 км 4/0
[Ci fib]
+28.2 +2.9 20 +26 +28 жарко 1025.6 1019.9
12 12.09 В 7 10 км 3/0
[Ci fib]
+29.4 +1.8 17 +27 +29 жарко 1024.6 1018.9
15 12.09 В 4 10 км 3/0
[Ci fib]
+28.4 +3.0 20 +27 +27 жарко 1023.8 1018.1
18 12.09 В 4 10 км ясно +19.1 +2.9 34 +19 +19 тепло 1025.0 1019.1 +29.8
21 12.09 В 2 10 км ясно +16.9 +1.8 36 +17 +17 тепло 1025.0 1019.0
00 13.09 С 3 10 км ясно +16.1 +3.1 42 +16 +16 тепло 1024.7 1018.7
03 13.09 С 4 10 км ясно +13.7 +4.8 55 +12 +12 по сезону 1024.9 1018.9
06 13.09 В 4 10 км 8/0
[Ci fib]
+19.7 +5.9 40 +20 +22 тепло 1025.7 1019.8 +12.8
09 13.09 В 3 10 км 8/0
[Ci fib]
+27.6 +3.1 21 +26 +33 жарко 1024.8 1019.1
12 13.09 В 5 10 км 4/0
[Ci fib]
+29.2 +1.7 17 +27 +31 жарко 1023.1 1017.4
15 13.09 СЗ 1 10 км ясно +28.0 +4.3 22 +27 +27 жарко 1021.9 1016.2
18 13.09 ЮВ 3 10 км ясно +22.2 +4.7 32 +22 +22 комфорт 1022.3 1016.5 +29.5
21 13.09 Ю 1 10 км ясно +17.7 +6.5 48 +19 +19 тепло 1022.5 1016.6
00 14.09 ЮЗ 2 10 км ясно +16.0 +7.6 57 +16 +16 тепло 1021.6 1015.7
03 14.09 С 3 10 км 5/0
[Ac trans]
+14.7 +6.1 56 +14 +14 по сезону 1021.5 1015.5
06 14.09 С 6 10 км 3/0
[Ac trans]
+18.5 +5.5 42 +18 +19 тепло 1021.9 1016.0 +14.0
09 14.09 СЗ 5 10 км 3/0
[Ci fib]
+26.5 +7.5 30 +26 +32 жарко 1021.1 1015.4
12 14.09 СЗ 7 10 км 8/0
[Ac trans Ci fib]
+27.2 +6.9 28 +27 +28 жарко 1020.5 1014.8
15 14.09 С 8 10 км 8/3 1000 м
[Cb calv Ac trans]
+24.6 +10.3 40 +26 +26 жарко 1020.4 1014.6
18 14.09 С 7 10 км 8/3 1000 м
[Cb calv Ac trans]
+20.1 +10.2 53 +21 +21 комфорт 1022.7 1016.8 +27.7
21 14.09 С 6 10 км ясно +17.3 +9.2 59 +17 +17 тепло 1024.3 1018.4
00 15.09 СЗ 4 10 км ясно +13.5 +8.0 69 +12 +12 по сезону 1025.0 1019.0
03 15.09 С 3 10 км 3/0
[Ci fib]
+10.7 +5.9 72 +9 +9 прохладно 1025.6 1019.5
06 15.09 С 5 10 км 8/0
[Ci fib]
+13.1 +4.5 56 +11 +13 прохладно 1026.6 1020.6 +8.7
09 15.09 СЗ 3 10 км 3/0
[Ci fib]
+20.5 +2.6 31 +21 +29 комфорт 1025.7 1019.8
12 15.09 СЗ 3 10 км 3/0
[Ci fib]
+22.5 0.0 22 +22 +28 комфорт 1023.9 1018.1
15 15.09 В 1 10 км 4/0
[Ci fib]
+22.3 +1.1 25 +22 +23 комфорт 1022.3 1016.5
18 15.09 ЮЗ 4 10 км 6/0
[Ac trans Ci fib]
+16.3 +5.4 48 +16 +16 по сезону 1021.9 1016.0 +23.9
21 15.09 ЮЗ 4 10 км 5/0
[Ci fib]
+14.7 +7.1 60 +14 +14 по сезону 1021.0 1015.0

 

Местоположение метеостанции Николаев (Николаевская область, Украина): широта 47.03 долгота 31.95 высота над уровнем моря 50 м.

В архиве по умолчанию представлена погода в Николаеве за последнюю неделю. Архивные данные за месяц целиком и за предыдущие месяцы, начиная с января 2011 года, Вы можете получить, выбрав интересующий диапазон дат из раскрывающегося списка и нажав кнопку "Ввод!".


*Определитесь, кто Вы:
робот инопланетянин человек

Внимание! Время в таблицах - всемирное. Для получения местного времени необходимо прибавить поправку, которая равна 2 ч.

Смотрите также архив погоды в соседних городах и на ближайших метеорологических станциях:

Погода в Очакове (Николаевская область, Украина) (54 км)
Погода в Баштанке (Николаевская область, Украина) (59 км)
Погода в Херсоне (Херсонская область, Украина) (65 км)
Погода в Вознесенске (Николаевская область, Украина) (76 км)
Погода в Бехтерах (Херсонская область, Украина) (91 км)
Погода в Сербке (Одесская область, Украина) (91 км)
Погода в Великой Александровке (Херсонская область, Украина) (106 км)
Погода в Новой Каховке (Херсонская область, Украина) (111 км)
Погода в Одессе (Одесская область, Украина) (112 км)
Погода в Бобринце (Кировоградская область, Украина) (117 км)

Пояснения к столбцам:

Ветер - указаны скорость ветра в м/с - средняя за 10 мин, порывы в срок и между сроками (в фигурных скобках) и направление, откуда дует ветер: С - северный, СВ - северо-восточный, В - восточный, ЮВ - юго-восточный, Ю - южный, ЮЗ - юго-западный, З - западный, СЗ - северо-западный.
Видимость - горизонтальная дальность видимости в метрах или километрах. При видимости от 1 до 10 км при отсутствии осадков обычно наблюдается дымка, при ухудшении видимости до 1 км и менее - туман. В сухую погоду видимость может ухудшаться дымом, пылью или мглою.
Явления - указаны атмосферные явления, наблюдавшиеся в срок или в последний час перед сроком; фигурными скобками обозначены явления, наблюдавшиеся между сроками (за 1-3 часа до срока); квадратными скобками обозначены град или гололедные отложения с указанием их диаметра в мм.
Облачность - указаны через наклонную черту общая и нижняя облачность в баллах и высота нижней границы облаков в метрах; квадратными скобками обозначены формы облаков: Ci - перистые, Cs - перисто-слоистые, Cc - перисто-кучевые, Ac - высококучевые, As - высокослоистые, Sc - слоисто-кучевые, Ns - слоисто-дождевые, Cu - кучевые, Cb - кучево-дождевые. Подробнее классификацию облаков см. в Атласе облаков (PDF).
T - Температура воздуха - температура, измеренная на высоте 2 м над землей.
Td - Температура точки росы - температура, при понижении до которой содержащийся в воздухе водяной пар достигнет насыщения.
f - Относительная влажность воздуха - влажноcть воздуха, измеренная на высоте 2 м над землей.
Te - Эффективная температура - температура, которую ощущает одетый по сезону человек в тени. Характеристика душности погоды. При расчете учитывается влияние влажности воздуха и скорости ветра на теплоощущения человека.
Tes - Эффективная температура на солнце - температура, которую ощущает человек, с поправкой на солнечный нагрев. Характеристика знойности погоды. Зависит от высоты солнца над горизонтом, облачности и скорости ветра. Ночью, в пасмурную погоду, а также при ветре 12 м/с и более поправка равна нулю.
P - Атмосферное давление - приведенное к уровню моря атмосферное давление.
Po - Атмосферное давление - измеренное на уровне метеостанции атмосферное давление.
Tmin - Минимальная температура - минимум температуры воздуха на высоте 2 м над землей.
Tmax - Максимальная температура - максимум температуры воздуха на высоте 2 м над землей.
R - Количество осадков - Количество выпавших осадков за период времени, мм. При наведении курсора мыши на число - период времени, за который выпало указанное количество осадков.
R24 - Количество осадков - Количество выпавших осадков за 24 часа, мм.
S - Снежный покров - Высота снежного покрова, см. При наведении курсора мыши на число - состояние снежного покрова и степень покрытия местности в баллах.